Telluride, CO

8:40 PM MST on December 14, 2019 (GMT -0700)
Telluride Regional

Weather History for KTEX - October, 2019

Change the Weather History Date:

Sunday, October 27, 2019

  Actual Average Record
Temperature  
Mean Temperature 40 °F -  
Max Temperature 51 °F 43 °F 67 °F (2016)
Min Temperature 28 °F 27 °F 21 °F (2006)
Degree Days  
Heating Degree Days 26    
Moisture  
Dew Point 15 °F    
Average Humidity 34    
Maximum Humidity 64    
Minimum Humidity 18    
Precipitation  
Precipitation 0.00 in - - ()
Sea Level Pressure  
Sea Level Pressure 29.87 in    
Wind  
Wind Speed 12 mph (South)    
Max Wind Speed 24 mph    
Max Gust Speed 39 mph    
Visibility 10 miles    
Events      
Averages and records for this station are not official NWS values.
T = Trace of Precipitation, MM = Missing Value Source: NWS Daily Summary

Daily Weather History Graph

Daily Weather History Graph

Search for Another Location

Airport or City:

Astronomy

Oct. 27, 2019 Rise Set
Actual Time 7:31 AM MDT 6:18 PM MDT
Civil Twilight 7:04 AM MDT 6:45 PM MDT
Nautical Twilight 6:34 AM MDT 7:16 PM MDT
Astronomical Twilight 6:03 AM MDT 7:46 PM MDT
Moon 6:45 AM MDT (10/27) 6:28 PM MDT (10/27)
Length of Visible Light 11h 40m
Length of Day
10h 46m
Waning Crescent, 0% of the Moon is Illuminated
Oct 27
Waning Crescent
Oct 27
New
Nov 4
First Quarter
Nov 12
Full
Nov 19
Last Quarter

Hourly Weather History & Observations

Time (MDT) Temp. Windchill Dew Point Humidity Pressure Visibility Wind Dir Wind Speed Gust Speed Precip Events Conditions
12:15 AM 46.4 °F 40.7 °F 17.6 °F 32% 29.97 in 10.0 mi ESE 12.7 mph 17.3 mph N/A   Clear
12:35 AM 44.6 °F 42.2 °F 17.6 °F 34% 29.97 in 10.0 mi SE 4.6 mph - N/A   Clear
12:55 AM 46.4 °F 44.3 °F 17.6 °F 32% 29.96 in 10.0 mi East 4.6 mph - N/A   Clear
1:15 AM 44.6 °F 40.7 °F 17.6 °F 34% 29.95 in 10.0 mi ESE 6.9 mph - N/A   Clear
1:35 AM 44.6 °F 41.4 °F 17.6 °F 34% 29.95 in 10.0 mi ESE 5.8 mph - N/A   Clear
1:55 AM 44.6 °F 38.4 °F 15.8 °F 31% 29.95 in 10.0 mi SE 12.7 mph - N/A   Clear
2:15 AM 46.4 °F 40.7 °F 15.8 °F 29% 29.95 in 10.0 mi South 12.7 mph 16.1 mph N/A   Clear
2:35 AM 44.6 °F 40.2 °F 15.8 °F 31% 29.95 in 10.0 mi SSE 8.1 mph - N/A   Clear
2:55 AM 44.6 °F 38.8 °F 15.8 °F 31% 29.93 in 10.0 mi SSE 11.5 mph 20.7 mph N/A   Clear
3:15 AM 44.6 °F 38.8 °F 17.6 °F 34% 29.93 in 10.0 mi SE 11.5 mph 18.4 mph N/A   Clear
3:35 AM 44.6 °F 40.2 °F 15.8 °F 31% 29.93 in 10.0 mi SE 8.1 mph 19.6 mph N/A   Clear
4:15 AM 44.6 °F 36.6 °F 15.8 °F 31% 29.90 in 10.0 mi SSE 19.6 mph 25.3 mph N/A   Clear
4:35 AM 44.6 °F 39.2 °F 17.6 °F 34% 29.90 in 10.0 mi SSE 10.4 mph 28.8 mph N/A   Clear
4:55 AM 44.6 °F 36.9 °F 17.6 °F 34% 29.89 in 10.0 mi South 18.4 mph 26.5 mph N/A   Clear
5:15 AM 44.6 °F 36.9 °F 17.6 °F 34% 29.88 in 10.0 mi SSE 18.4 mph 27.6 mph N/A   Clear
5:35 AM 44.6 °F 38.1 °F 15.8 °F 31% 29.89 in 10.0 mi SE 13.8 mph 25.3 mph N/A   Clear
5:55 AM 44.6 °F 39.2 °F 15.8 °F 31% 29.88 in 10.0 mi SSE 10.4 mph 23.0 mph N/A   Clear
6:15 AM 44.6 °F 37.4 °F 15.8 °F 31% 29.87 in 10.0 mi SE 16.1 mph 24.2 mph N/A   Clear
6:35 AM 44.6 °F 38.1 °F 15.8 °F 31% 29.86 in 10.0 mi SSE 13.8 mph 34.5 mph N/A   Clear
6:55 AM 44.6 °F 39.2 °F 15.8 °F 31% 29.87 in 10.0 mi SSE 10.4 mph 25.3 mph N/A   Clear
7:15 AM 44.6 °F 37.2 °F 15.8 °F 31% 29.86 in 10.0 mi SE 17.3 mph 26.5 mph N/A   Clear
7:35 AM 44.6 °F 41.4 °F 15.8 °F 31% 29.86 in 10.0 mi East 5.8 mph 28.8 mph N/A   Clear
7:55 AM 42.8 °F 34.5 °F 15.8 °F 34% 29.88 in 10.0 mi ESE 18.4 mph 28.8 mph N/A   Clear
8:15 AM 44.6 °F 35.7 °F 15.8 °F 31% 29.88 in 10.0 mi SSE 24.2 mph 29.9 mph N/A   Clear
8:35 AM 42.8 °F 35.8 °F 15.8 °F 34% 29.89 in 10.0 mi SSE 13.8 mph 26.5 mph N/A   Clear
8:55 AM 44.6 °F 37.2 °F 15.8 °F 31% 29.89 in 10.0 mi SSE 17.3 mph 26.5 mph N/A   Clear
9:35 AM 44.6 °F 38.8 °F 15.8 °F 31% 29.91 in 10.0 mi ESE 11.5 mph 19.6 mph N/A   Clear
9:55 AM 44.6 °F 41.4 °F 15.8 °F 31% 29.91 in 10.0 mi ESE 5.8 mph - N/A   Scattered Clouds
10:15 AM 44.6 °F 40.2 °F 14.0 °F 29% 29.90 in 10.0 mi SE 8.1 mph 23.0 mph N/A   Scattered Clouds
10:35 AM 46.4 °F 40.1 °F 14.0 °F 27% 29.89 in 10.0 mi SE 15.0 mph - N/A   Scattered Clouds
10:55 AM 48.2 °F - 14.0 °F 25% 29.88 in 10.0 mi SSE 10.4 mph 16.1 mph N/A   Scattered Clouds
11:15 AM 48.2 °F - 14.0 °F 25% 29.87 in 10.0 mi SE 21.9 mph 29.9 mph N/A   Scattered Clouds
11:35 AM 50.0 °F - 14.0 °F 24% 29.86 in 10.0 mi South 15.0 mph 33.4 mph N/A   Scattered Clouds
11:55 AM 50.0 °F - 12.2 °F 22% 29.86 in 10.0 mi South 16.1 mph 39.1 mph N/A   Scattered Clouds
12:15 PM 50.0 °F - 12.2 °F 22% 29.86 in 10.0 mi West 16.1 mph 23.0 mph N/A   Mostly Cloudy
12:35 PM 51.8 °F - 12.2 °F 21% 29.85 in 10.0 mi SSE 11.5 mph 19.6 mph N/A   Mostly Cloudy
12:55 PM 51.8 °F - 12.2 °F 21% 29.84 in 10.0 mi SSW 9.2 mph 21.9 mph N/A   Scattered Clouds
1:15 PM 50.0 °F - 12.2 °F 22% 29.82 in 10.0 mi South 11.5 mph 39.1 mph N/A   Clear
1:35 PM 50.0 °F - 12.2 °F 22% 29.81 in 10.0 mi South 18.4 mph 26.5 mph N/A   Clear
1:55 PM 50.0 °F - 12.2 °F 22% 29.82 in 10.0 mi SSW 24.2 mph 34.5 mph N/A   Clear
2:15 PM 50.0 °F - 12.2 °F 22% 29.83 in 10.0 mi South 8.1 mph 23.0 mph N/A   Clear
2:55 PM 51.8 °F - 10.4 °F 19% 29.82 in 10.0 mi South 12.7 mph 31.1 mph N/A   Clear
3:15 PM 51.8 °F - 10.4 °F 19% 29.82 in 10.0 mi SSW 12.7 mph 27.6 mph N/A   Scattered Clouds
3:35 PM 51.8 °F - 8.6 °F 18% 29.82 in 10.0 mi SW 19.6 mph 32.2 mph N/A   Clear
3:55 PM 50.0 °F - 8.6 °F 19% 29.83 in 10.0 mi WSW 17.3 mph 35.7 mph N/A   Clear
4:15 PM 50.0 °F - 10.4 °F 20% 29.82 in 10.0 mi SW 13.8 mph 27.6 mph N/A   Clear
4:35 PM 50.0 °F - 10.4 °F 20% 29.82 in 10.0 mi WSW 16.1 mph 29.9 mph N/A   Clear
4:55 PM 50.0 °F - 10.4 °F 20% 29.82 in 10.0 mi WSW 15.0 mph 26.5 mph N/A   Clear
5:15 PM 50.0 °F - 10.4 °F 20% 29.82 in 10.0 mi SW 12.7 mph 23.0 mph N/A   Scattered Clouds
5:35 PM 50.0 °F - 10.4 °F 20% 29.81 in 10.0 mi South 10.4 mph 20.7 mph N/A   Clear
5:55 PM 48.2 °F - 10.4 °F 22% 29.80 in 10.0 mi SSW 21.9 mph 38.0 mph N/A   Scattered Clouds
6:15 PM 48.2 °F - 10.4 °F 22% 29.80 in 10.0 mi SW 16.1 mph 35.7 mph N/A   Overcast
6:35 PM 41.0 °F 32.8 °F 17.6 °F 39% 29.82 in 10.0 mi West 16.1 mph 21.9 mph N/A   Overcast
6:55 PM 39.2 °F 31.2 °F 17.6 °F 42% 29.82 in 10.0 mi West 13.8 mph 19.6 mph N/A   Overcast
7:15 PM 39.2 °F 34.2 °F 17.6 °F 42% 29.82 in 10.0 mi West 6.9 mph 17.3 mph N/A   Mostly Cloudy
7:35 PM 37.4 °F 30.3 °F 17.6 °F 45% 29.82 in 10.0 mi West 10.4 mph - N/A   Mostly Cloudy
7:55 PM 35.6 °F 26.6 °F 17.6 °F 48% 29.83 in 10.0 mi WSW 13.8 mph 19.6 mph N/A   Mostly Cloudy
8:15 PM 33.8 °F 22.8 °F 17.6 °F 52% 29.83 in 10.0 mi West 18.4 mph 25.3 mph N/A   Overcast
8:35 PM 33.8 °F 24.3 °F 17.6 °F 52% 29.83 in 10.0 mi West 13.8 mph 27.6 mph N/A   Overcast
8:55 PM 32.0 °F 21.2 °F 17.6 °F 55% 29.83 in 10.0 mi West 16.1 mph 29.9 mph N/A   Overcast
9:15 PM 32.0 °F 20.8 °F 17.6 °F 55% 29.84 in 10.0 mi West 17.3 mph 26.5 mph N/A   Overcast
9:35 PM 32.0 °F 22.1 °F 17.6 °F 55% 29.86 in 10.0 mi West 13.8 mph 19.6 mph N/A   Overcast
9:55 PM 32.0 °F 22.1 °F 17.6 °F 55% 29.86 in 10.0 mi West 13.8 mph 21.9 mph N/A   Overcast
10:15 PM 30.2 °F 25.4 °F 17.6 °F 60% 29.87 in 10.0 mi West 4.6 mph - N/A   Overcast
10:35 PM 30.2 °F 25.4 °F 17.6 °F 60% 29.86 in 10.0 mi West 4.6 mph - N/A   Overcast
10:55 PM 30.2 °F 21.9 °F 17.6 °F 60% 29.87 in 10.0 mi West 9.2 mph - N/A   Overcast
11:15 PM 28.4 °F 19.7 °F 17.6 °F 64% 29.87 in 10.0 mi West 9.2 mph 16.1 mph N/A   Overcast
11:35 PM 28.4 °F 17.5 °F 17.6 °F 64% 29.87 in 10.0 mi West 13.8 mph 20.7 mph N/A   Overcast
11:55 PM 28.4 °F 19.7 °F 17.6 °F 64% 29.87 in 10.0 mi West 9.2 mph 16.1 mph N/A   Overcast